TimeCST,TemperatureF,Dew PointF,Humidity,Sea Level PressureIn,VisibilityMPH,Wind Direction,Wind SpeedMPH,Gust SpeedMPH,PrecipitationIn,Events,Conditions,WindDirDegrees,DateUTC
12:52 AM,57.0,53.1,87,29.52,10.0,West,10.4,-,N/A,,Clear,260,2012-02-23 06:52:00
1:52 AM,55.9,51.1,84,29.53,10.0,NW,6.9,-,N/A,,Clear,310,2012-02-23 07:52:00
2:52 AM,55.0,51.1,86,29.54,10.0,Calm,Calm,-,N/A,,Clear,0,2012-02-23 08:52:00
3:52 AM,48.9,48.0,97,29.54,4.0,Calm,Calm,-,N/A,,Clear,0,2012-02-23 09:52:00
4:26 AM,48.2,48.2,100,29.54,1.8,Calm,Calm,-,N/A,,Clear,0,2012-02-23 10:26:00
4:52 AM,48.9,48.0,97,29.51,3.0,East,6.9,-,N/A,,Clear,100,2012-02-23 10:52:00
5:04 AM,46.4,46.4,100,29.51,1.5,ESE,4.6,-,N/A,,Clear,110,2012-02-23 11:04:00
5:16 AM,48.2,48.2,100,29.54,3.0,South,4.6,-,N/A,,Clear,190,2012-02-23 11:16:00
5:35 AM,48.2,48.2,100,29.54,1.8,South,3.5,-,N/A,,Clear,170,2012-02-23 11:35:00
5:43 AM,46.4,46.4,100,29.53,0.5,SE,3.5,-,N/A,Fog,Fog,130,2012-02-23 11:43:00
5:52 AM,46.0,46.0,100,29.53,0.2,ESE,3.5,-,N/A,Fog,Fog,110,2012-02-23 11:52:00
6:00 AM,48.2,48.2,100,29.54,0.5,Calm,Calm,-,N/A,Fog,Fog,0,2012-02-23 12:00:00
6:12 AM,46.4,46.4,100,29.54,0.2,Calm,Calm,-,N/A,Fog,Fog,0,2012-02-23 12:12:00
6:52 AM,45.0,45.0,100,29.55,0.2,SE,4.6,-,N/A,Fog,Fog,130,2012-02-23 12:52:00
7:39 AM,50.0,50.0,100,29.56,1.2,ESE,5.8,-,N/A,,Scattered Clouds,110,2012-02-23 13:39:00
7:49 AM,51.8,51.8,100,29.55,2.0,ESE,5.8,-,N/A,,Partly Cloudy,120,2012-02-23 13:49:00
7:52 AM,52.0,52.0,100,29.55,2.5,ESE,5.8,-,N/A,,Partly Cloudy,120,2012-02-23 13:52:00
8:02 AM,51.8,51.8,100,29.55,4.0,SE,6.9,-,N/A,,Clear,130,2012-02-23 14:02:00
8:52 AM,55.9,53.1,90,29.52,9.0,SSE,6.9,-,N/A,,Clear,150,2012-02-23 14:52:00
9:52 AM,62.1,53.1,72,29.48,10.0,SSE,9.2,-,N/A,,Clear,150,2012-02-23 15:52:00
10:52 AM,66.9,52.0,59,29.43,10.0,SSE,11.5,-,N/A,,Clear,150,2012-02-23 16:52:00
11:52 AM,70.0,52.0,53,29.38,10.0,South,24.2,34.5,N/A,,Clear,180,2012-02-23 17:52:00
12:52 PM,70.0,55.9,61,29.33,10.0,SSW,23.0,32.2,N/A,,Scattered Clouds,200,2012-02-23 18:52:00
1:52 PM,75.0,55.0,50,29.30,10.0,SW,19.6,28.8,N/A,,Partly Cloudy,220,2012-02-23 19:52:00
2:52 PM,75.9,51.1,42,29.29,10.0,SSW,19.6,29.9,N/A,,Scattered Clouds,210,2012-02-23 20:52:00
3:52 PM,75.9,51.1,42,29.29,10.0,SW,13.8,34.5,N/A,,Clear,220,2012-02-23 21:52:00
4:52 PM,75.9,51.1,42,29.30,10.0,SW,15.0,23.0,N/A,,Clear,220,2012-02-23 22:52:00
5:52 PM,73.9,48.9,41,29.33,10.0,West,10.4,20.7,N/A,,Clear,260,2012-02-23 23:52:00
6:52 PM,72.0,51.1,48,29.36,10.0,WSW,12.7,-,N/A,,Clear,250,2012-02-24 00:52:00
7:52 PM,71.1,52.0,51,29.37,10.0,SW,8.1,-,N/A,,Partly Cloudy,230,2012-02-24 01:52:00
8:47 PM,71.6,51.8,50,29.38,10.0,SW,10.4,-,N/A,Thunderstorm,Mostly Cloudy,220,2012-02-24 02:47:00
8:52 PM,71.1,52.0,51,29.37,10.0,SW,10.4,-,N/A,Thunderstorm,Mostly Cloudy,220,2012-02-24 02:52:00
9:15 PM,71.6,51.8,50,29.39,10.0,SW,10.4,19.6,N/A,,Scattered Clouds,230,2012-02-24 03:15:00
9:30 PM,71.6,53.6,53,29.40,10.0,SW,20.7,28.8,N/A,Thunderstorm,Thunderstorm,230,2012-02-24 03:30:00
9:52 PM,71.1,53.1,53,29.39,10.0,SW,13.8,-,N/A,,Mostly Cloudy,230,2012-02-24 03:52:00
11:52 PM,66.9,52.0,59,29.42,10.0,West,13.8,21.9,N/A,,Clear,270,2012-02-24 05:52:00